Home   Weather   Wolfsburg   Past weeks

Flag for Germany Past Weather in Wolfsburg, Lower Saxony, Germany — Yesterday and Last 2 Weeks

37 °F


Feels Like: 35 °F
Forecast: 42 / 54 °F
Wind: 3 mph from North

Location: Braunschweig Wolfsburg

Current Time: Oct 26, 2016 at 7:48:55 AM

Latest Report: Oct 26, 2016 at 7:20 AM

Visibility: 5 mi

Pressure: 30.36 "Hg

Humidity: 100%

Dew Point: 37 °F

Location of WolfsburgLocation

Past Weather in Wolfsburg — Graph


Wolfsburg Temperature Yesterday

Maximum temperature yesterday: 48 °F (at 4:50 PM)
Minimum temperature yesterday: 41 °F (at 9:50 PM)
Average temperature yesterday: 46 °F

High & Low Weather Summary for the Past Weeks

High64 °F (Oct 16, 1:50 PM)100% (Oct 11, 6:50 AM)30.36 "Hg (Oct 11, 6:50 AM)
Low36 °F (Oct 26, 4:20 AM)56% (Oct 16, 1:50 PM)29.80 "Hg (Oct 19, 7:50 PM)
Average47 °F90%30.05 "Hg
* Reported Oct 11 6:50 AM — Oct 26 4:50 AM, Wolfsburg, Weather by CustomWeather, © 2016

Note: Actual official high and low records may vary slightly from our data, if they occured in-between our weather recording intervals... More about our weather records


Wolfsburg Weather History for the Previous 24 Hours

Scroll right to see more
Time TempWeatherWind HumidityBarometerVisibility
4:50 AM
Wed, Oct 26
37 °FOvercast.3 mph100%30.36 "Hg3 mi
4:20 AM36 °FOvercast.3 mph100%30.36 "Hg4 mi
10:20 PM
Tue, Oct 25
41 °FSleet. Overcast.No wind100%30.33 "Hg4 mi
9:50 PM41 °FSleet. Overcast.No wind93%30.33 "Hg3 mi
8:50 PM46 °FPassing clouds.2 mph93%30.30 "Hg4 mi
8:20 PM46 °FOvercast.3 mph100%30.30 "Hg4 mi
7:50 PM46 °FMostly cloudy.2 mph100%30.30 "Hg4 mi
7:20 PM46 °FOvercast.No wind100%30.27 "Hg4 mi
6:50 PM46 °FOvercast.1 mph100%30.27 "Hg3 mi
6:20 PM48 °FFog.1 mph94%30.27 "Hg3 mi
5:50 PM48 °FFog.1 mph94%30.24 "Hg3 mi
5:20 PM48 °FFog.No wind94%30.24 "Hg3 mi
4:50 PM48 °FFog.No wind94%30.24 "Hg3 mi
4:20 PM46 °FFog.No wind100%30.21 "Hg3 mi
3:50 PM46 °FFog.2 mph100%30.21 "Hg2 mi
3:20 PM46 °FFog.3 mph100%30.21 "Hg2 mi
2:50 PM46 °FFog.3 mph100%30.18 "Hg2 mi
2:20 PM46 °FFog.3 mph100%30.18 "Hg1 mi
1:50 PM46 °FFog.3 mph100%30.18 "Hg2 mi
1:20 PM46 °FDrizzle. Fog.5 mph100%30.18 "Hg2 mi
12:50 PM46 °FDrizzle. Fog.2 mph100%30.18 "Hg1 mi
12:20 PM46 °FDrizzle. Fog.3 mph100%30.18 "Hg1 mi
11:50 AM46 °FDrizzle. Fog.2 mph100%30.15 "Hg1 mi
11:20 AM46 °FFog.1 mph100%30.15 "Hg2 mi
10:50 AM46 °FFog.2 mph100%30.15 "Hg2 mi
10:20 AM46 °FDrizzle. Fog.No wind100%30.15 "Hg2 mi
9:50 AM46 °FDrizzle. Fog.No wind100%30.15 "Hg1 mi
9:20 AM46 °FDrizzle. Fog.2 mph100%30.12 "Hg1 mi
8:50 AM46 °FDrizzle. Fog.2 mph100%30.12 "Hg2 mi
8:20 AM46 °FFog.No wind93%30.09 "Hg2 mi
7:50 AM45 °FDrizzle. Fog.No wind100%30.07 "Hg2 mi
7:20 AM45 °FLight rain. Fog.No wind100%30.07 "Hg2 mi
Weather by CustomWeather, © 2016

See weather overviewHow to use our weather pages